Date String (YYYY-MM-DD hh:mm:ss) UTC,Instrument flags,Ambient pressure (hPa),Sample flow (lpm),Bypass flow (lpm),Sample temperature (°C),Ambient temperature (°C),ASC tube jacket temperature (°C),LED temperature (°C),Box temperature (°C),Sample RH (%),Span deviation,Mass concentration (μg/m³),Mass concentration (μg/m³),Mass concentration (μg/m³)
DateTimeUTC,F1_M11,P_M11,Q1_M11,Q2_M11,T1_M11,T2_M11,T3_M11,T4_M11,T5_M11,U1_M11,ZSPAN_M11,X0_M11,X2_M11,X1_M11
2021-08-23 15:00:00,,0827.9,5.00,0.00,29.7,27.7,00.0,38.8,31.3,28.4,0002.1,0023.60,0015.37,0014.37
2021-08-23 15:01:00,,0827.9,4.99,0.00,29.7,28.0,00.0,38.8,31.4,28.8,0002.2,0023.71,0015.43,0014.45
2021-08-23 15:02:00,,0827.8,5.01,0.00,29.7,28.2,00.0,38.8,31.4,28.8,0002.1,0023.87,0015.49,0014.53
2021-08-23 15:03:00,,0827.8,4.98,0.00,29.7,28.4,00.0,38.8,31.5,29.0,0002.0,0023.75,0015.55,0014.55
2021-08-23 15:04:00,,0827.9,5.01,0.00,29.8,28.6,00.0,38.8,31.6,28.9,0002.0,0023.89,0015.56,0014.55
2021-08-23 15:05:00,,0827.9,5.00,0.00,29.8,28.7,00.0,38.8,31.6,27.9,0002.0,0023.98,0015.61,0014.61
2021-08-23 15:06:00,,0828.0,5.00,0.00,29.8,28.8,00.0,38.8,31.7,27.7,0001.8,0023.99,0015.54,0014.60
2021-08-23 15:07:00,,0827.9,5.00,0.00,29.9,28.9,00.0,38.9,31.7,27.1,0002.0,0023.56,0015.51,0014.58
2021-08-23 15:08:00,,0827.9,4.99,0.00,29.9,28.9,00.0,38.9,31.7,25.7,0002.1,0023.79,0015.54,0014.63
2021-08-23 15:09:00,,0827.9,5.01,0.00,29.9,27.7,00.0,38.9,31.4,25.4,0002.0,0023.52,0015.57,0014.71
2021-08-23 15:10:00,,0827.9,5.01,0.00,29.7,26.5,00.0,38.9,31.0,27.6,0002.1,0023.58,0015.62,0014.75
2021-08-23 15:11:00,,0827.9,4.99,0.00,29.6,26.6,00.0,38.8,31.1,27.8,0002.3,0023.43,0015.65,0014.77
2021-08-23 15:12:00,,0827.8,5.00,0.00,29.6,27.0,00.0,38.8,31.1,27.6,0002.4,0024.11,0015.74,0014.82
2021-08-23 15:13:00,,0827.9,5.01,0.00,29.6,27.3,00.0,38.8,31.2,27.7,0002.3,0024.36,0015.85,0014.90
2021-08-23 15:14:00,,0827.9,5.01,0.00,29.6,27.7,00.0,38.7,31.2,28.3,0002.6,0024.48,0015.90,0014.97
2021-08-23 15:15:00,,0827.9,4.99,0.00,29.6,28.0,00.0,38.7,31.3,27.9,0003.0,0025.11,0015.98,0015.05
2021-08-23 15:16:00,,0827.9,5.01,0.00,29.6,28.2,00.0,38.7,31.4,26.3,0003.0,0024.91,0016.05,0015.13
2021-08-23 15:17:00,,0827.9,4.99,0.00,29.7,28.4,00.0,38.7,31.4,26.7,0003.0,0025.45,0016.19,0015.23
2021-08-23 15:18:00,,0827.9,5.01,0.00,29.7,28.5,00.0,38.7,31.5,26.6,0003.1,0025.65,0016.32,0015.37
2021-08-23 15:19:00,,0827.8,4.99,0.00,29.7,28.7,00.0,38.7,31.5,25.2,0003.4,0025.67,0016.46,0015.50
2021-08-23 15:20:00,,0827.9,5.01,0.00,29.8,28.8,00.0,38.8,31.6,25.3,0003.4,0025.74,0016.58,0015.61
2021-08-23 15:21:00,,0827.9,5.01,0.00,29.8,28.9,00.0,38.8,31.7,26.5,0003.3,0025.36,0016.69,0015.69
2021-08-23 15:22:00,,0827.9,4.99,0.00,29.8,28.2,00.0,38.8,31.5,27.3,0003.2,0025.84,0016.77,0015.74
2021-08-23 15:23:00,,0827.9,5.01,0.00,29.7,26.6,00.0,38.8,31.1,25.9,0003.2,0025.62,0016.85,0015.83
2021-08-23 15:24:00,,0827.8,5.00,0.00,29.6,26.3,00.0,38.8,31.0,26.5,0003.3,0025.23,0016.94,0015.93
2021-08-23 15:25:00,,0827.8,5.00,0.00,29.6,26.7,00.0,38.7,31.1,26.3,0003.1,0025.03,0017.02,0015.99
2021-08-23 15:26:00,,0827.8,4.99,0.00,29.5,27.1,00.0,38.7,31.1,25.7,0002.9,0024.87,0017.11,0016.06
2021-08-23 15:27:00,,0827.8,5.00,0.00,29.5,27.5,00.0,38.7,31.2,26.3,0003.0,0025.46,0017.13,0016.06
2021-08-23 15:28:00,,0827.7,5.00,0.00,29.5,27.8,00.0,38.7,31.3,25.9,0003.2,0025.01,0017.17,0016.08
2021-08-23 15:29:00,,0827.7,5.00,0.00,29.6,28.1,00.0,38.7,31.3,25.3,0003.3,0024.99,0017.20,0016.10
2021-08-23 15:30:00,,0827.7,5.00,0.00,29.6,28.3,00.0,38.7,31.4,23.8,0003.1,0024.87,0017.24,0016.12
2021-08-23 15:31:00,,0827.7,5.00,0.00,29.6,28.5,00.0,38.7,31.4,23.8,0003.2,0024.83,0017.28,0016.13
2021-08-23 15:32:00,,0827.7,5.01,0.00,29.7,28.6,00.0,38.7,31.5,24.3,0003.2,0025.31,0017.32,0016.18
2021-08-23 15:33:00,,0827.7,5.00,0.00,29.7,28.7,00.0,38.7,31.5,24.3,0003.3,0024.99,0017.44,0016.26
2021-08-23 15:34:00,,0827.7,5.00,0.00,29.8,28.8,00.0,38.7,31.6,24.8,0003.2,0024.63,0017.40,0016.24
2021-08-23 15:35:00,,0827.7,5.02,0.00,29.8,28.6,00.0,38.7,31.5,24.7,0003.2,0024.65,0017.34,0016.19
2021-08-23 15:36:00,,0827.7,5.00,0.00,29.7,27.0,00.0,38.7,31.1,24.2,0003.3,0025.03,0017.31,0016.19
2021-08-23 15:37:00,,0827.7,5.00,0.00,29.5,26.2,00.0,38.7,30.8,24.8,0003.1,0025.10,0017.23,0016.13
2021-08-23 15:38:00,,0827.7,5.00,0.00,29.5,26.5,00.0,38.7,30.9,25.5,0003.0,0024.21,0017.21,0016.09
2021-08-23 15:39:00,,0827.7,5.00,0.00,29.4,26.9,00.0,38.6,31.0,25.4,0002.9,0024.06,0017.17,0016.07
2021-08-23 15:40:00,,0827.7,5.00,0.00,29.4,27.3,00.0,38.6,31.1,25.7,0002.8,0024.36,0017.15,0016.04
2021-08-23 15:41:00,,0827.6,5.00,0.00,29.5,27.7,00.0,38.6,31.2,25.6,0002.8,0024.62,0017.08,0015.99
2021-08-23 15:42:00,,0827.7,4.99,0.00,29.5,28.0,00.0,38.6,31.3,24.4,0002.4,0024.68,0016.98,0015.93
2021-08-23 15:43:00,,0827.7,5.00,0.00,29.5,28.2,00.0,38.6,31.3,24.4,0002.3,0024.09,0016.87,0015.85
2021-08-23 15:44:00,,0827.8,5.00,0.00,29.6,28.4,00.0,38.6,31.4,24.2,0002.2,0023.80,0016.76,0015.79
2021-08-23 15:45:00,,0827.7,5.02,0.00,29.6,28.6,00.0,38.6,31.5,24.1,0002.0,0023.87,0016.74,0015.72
2021-08-23 15:46:00,,0827.7,5.00,0.00,29.7,28.7,00.0,38.6,31.5,23.9,0002.0,0023.78,0016.72,0015.68
2021-08-23 15:47:00,,0827.7,5.01,0.00,29.7,28.7,00.0,38.7,31.5,23.7,0002.1,0023.20,0016.67,0015.64
2021-08-23 15:48:00,,0827.7,5.00,0.00,29.7,27.4,00.0,38.7,31.2,23.6,0002.3,0022.68,0016.61,0015.59
2021-08-23 15:49:00,,0827.7,4.99,0.00,29.5,26.3,00.0,38.6,30.8,23.7,0002.3,0022.67,0016.63,0015.62
2021-08-23 15:50:00,,0827.7,5.00,0.00,29.4,26.5,00.0,38.6,30.9,23.4,0002.5,0022.69,0016.65,0015.65
2021-08-23 15:51:00,,0827.7,5.00,0.00,29.4,26.9,00.0,38.6,31.0,24.7,0002.7,0022.34,0016.67,0015.67
2021-08-23 15:52:00,,0827.7,5.01,0.00,29.4,27.3,00.0,38.6,31.1,24.2,0002.6,0022.31,0016.66,0015.66
2021-08-23 15:53:00,,0827.7,5.00,0.00,29.4,27.7,00.0,38.5,31.2,23.3,0002.7,0022.86,0016.78,0015.73
2021-08-23 15:54:00,,0827.8,4.99,0.00,29.5,27.9,00.0,38.5,31.2,23.6,0002.7,0023.20,0016.97,0015.85
2021-08-23 15:55:00,,0827.8,4.99,0.00,29.5,28.2,00.0,38.5,31.3,24.0,0002.7,0023.35,0017.05,0015.96
2021-08-23 15:56:00,,0827.8,5.00,0.00,29.5,28.4,00.0,38.6,31.4,24.6,0002.8,0023.38,0017.12,0016.06
2021-08-23 15:57:00,,0827.8,5.00,0.00,29.6,28.5,00.0,38.6,31.4,24.7,0002.8,0023.92,0017.22,0016.17
2021-08-23 15:58:00,,0827.8,4.99,0.00,29.6,28.7,00.0,38.6,31.5,24.0,0002.5,0024.47,0017.35,0016.28
2021-08-23 15:59:00,,0827.8,5.00,0.00,29.7,28.8,00.0,38.6,31.5,24.8,0002.5,0024.68,0017.43,0016.39
